Hugo, OK

11:44 AM CST on February 27, 2017 (GMT -0600)
Stamper Municipal

Weather History for KHHW - June, 2014

Change the Weather History Date:

Tuesday, June 17, 2014

  Actual Average Record
Temperature  
Mean Temperature 86 °F -  
Max Temperature 94 °F 89 °F 95 °F (2016)
Min Temperature 79 °F 66 °F 71 °F (2013)
Cooling Degree Days 22    
Growing Degree Days 36 (Base 50)    
Moisture  
Dew Point 82 °F    
Average Humidity 91    
Maximum Humidity 100    
Minimum Humidity 72    
Precipitation  
Precipitation 0.00 in - - ()
Sea Level Pressure  
Sea Level Pressure 29.97 in    
Wind  
Wind Speed 9 mph (South)    
Max Wind Speed 17 mph    
Max Gust Speed 24 mph    
Visibility 10 miles    
Events      
Averages and records for this station are not official NWS values.
T = Trace of Precipitation, MM = Missing Value Source: NWS Daily Summary

Daily Weather History Graph

Daily Weather History Graph

Search for Another Location

Airport or City:

Trip Planner

Search our weather history database for the weather conditions in past years. The results will help you decide how hot, cold, wet, or windy it might be!

Date:

Astronomy

Jun. 17, 2014 Rise Set
Actual Time 6:10 AM CDT 8:35 PM CDT
Civil Twilight 5:41 AM CDT 9:04 PM CDT
Nautical Twilight 5:05 AM CDT 9:40 PM CDT
Astronomical Twilight 4:25 AM CDT 10:20 PM CDT
Moon No Moon Rise 11:13 AM CDT (6/17)
Length of Visible Light 15h 23m
Length of Day
14h 25m
Waning Gibbous, 73% of the Moon is Illuminated
Jun 17
Waning Gibbous
Jun 19
Last Quarter
Jun 27
New
Jul 5
First Quarter
Jul 12
Full

Hourly Weather History & Observations

Time (CDT) Temp. Heat Index Dew Point Humidity Pressure Visibility Wind Dir Wind Speed Gust Speed Precip Events Conditions
12:15 AM 82.9 °F 95.2 °F 80.2 °F 92% 29.98 in 10.0 mi South 8.1 mph - N/A   Clear
12:35 AM 82.6 °F 94.7 °F 80.6 °F 94% 29.98 in 10.0 mi South 8.1 mph - N/A   Clear
12:55 AM 82.4 °F 94.0 °F 80.6 °F 94% 29.98 in 10.0 mi South 6.9 mph - N/A   Clear
1:15 AM 81.9 °F 93.1 °F 80.8 °F 97% 29.97 in 10.0 mi South 8.1 mph - N/A   Clear
1:35 AM 81.7 °F 92.4 °F 80.8 °F 97% 29.97 in 10.0 mi South 9.2 mph - N/A   Clear
1:55 AM 81.5 °F 92.1 °F 80.8 °F 98% 29.96 in 10.0 mi South 10.4 mph 18.4 mph N/A   Clear
2:15 AM 81.1 °F 91.0 °F 80.8 °F 99% 29.97 in 10.0 mi South 9.2 mph - N/A   Clear
2:35 AM 80.8 °F 90.0 °F 80.8 °F 100% 29.96 in 10.0 mi South 8.1 mph - N/A   Clear
2:55 AM 80.6 °F 89.3 °F 80.6 °F 100% 29.97 in 10.0 mi South 6.9 mph - N/A   Clear
3:15 AM 80.1 °F 87.4 °F 80.1 °F 100% 29.97 in 10.0 mi South 6.9 mph - N/A   Clear
3:35 AM 80.1 °F 87.4 °F 80.1 °F 100% 29.97 in 10.0 mi South 8.1 mph - N/A   Clear
3:55 AM 79.9 °F - 79.9 °F 100% 29.97 in 10.0 mi South 8.1 mph - N/A   Clear
4:15 AM 79.7 °F - 79.7 °F 100% 29.97 in 10.0 mi South 6.9 mph - N/A   Clear
4:35 AM 79.7 °F - 79.7 °F 100% 29.98 in 10.0 mi South 9.2 mph - N/A   Clear
4:55 AM 79.3 °F - 79.3 °F 100% 29.98 in 10.0 mi South 6.9 mph - N/A   Clear
5:15 AM 79.2 °F - 79.2 °F 100% 29.98 in 10.0 mi South 6.9 mph - N/A   Mostly Cloudy
5:35 AM 79.3 °F - 79.3 °F 100% 29.98 in 10.0 mi South 8.1 mph - N/A   Overcast
5:55 AM 79.7 °F - 79.7 °F 100% 29.99 in 10.0 mi South 4.6 mph - N/A   Overcast
6:15 AM 79.9 °F - 79.9 °F 100% 29.99 in 10.0 mi South 6.9 mph - N/A   Overcast
6:35 AM 80.1 °F 87.4 °F 80.1 °F 100% 30.00 in 10.0 mi SSW 8.1 mph - N/A   Overcast
6:55 AM 80.6 °F 89.3 °F 80.6 °F 100% 30.00 in 10.0 mi South 8.1 mph 20.7 mph N/A   Overcast
7:35 AM 81.0 °F 90.6 °F 81.0 °F 100% 30.01 in 7.0 mi South 8.1 mph - N/A   Overcast
7:55 AM 81.7 °F 93.3 °F 81.7 °F 100% 30.01 in 10.0 mi South 10.4 mph - N/A   Overcast
8:15 AM 82.0 °F 94.7 °F 82.0 °F 100% 30.02 in 10.0 mi South 9.2 mph - N/A   Overcast
8:35 AM 82.4 °F 96.1 °F 82.4 °F 100% 30.02 in 10.0 mi South 8.1 mph 16.1 mph N/A   Overcast
8:55 AM 83.5 °F 99.6 °F 82.8 °F 98% 30.02 in 10.0 mi South 8.1 mph 19.6 mph N/A   Overcast
9:15 AM 84.9 °F 103.9 °F 83.3 °F 95% 30.02 in 10.0 mi SSW 10.4 mph 21.9 mph N/A   Overcast
9:35 AM 84.6 °F 103.0 °F 83.3 °F 96% 30.02 in 10.0 mi SSW 12.7 mph 21.9 mph N/A   Overcast
9:55 AM 85.3 °F 104.8 °F 83.5 °F 94% 30.02 in 10.0 mi SSW 15.0 mph 20.7 mph N/A   Overcast
10:15 AM 86.4 °F 107.3 °F 83.5 °F 91% 30.01 in 10.0 mi SSW 13.8 mph 20.7 mph N/A   Overcast
10:35 AM 86.4 °F 107.3 °F 83.5 °F 91% 30.01 in 10.0 mi SSW 13.8 mph 19.6 mph N/A   Mostly Cloudy
10:55 AM 86.9 °F 109.4 °F 83.8 °F 91% 30.01 in 10.0 mi South 11.5 mph 17.3 mph N/A   Overcast
11:15 AM 88.5 °F 111.6 °F 83.7 °F 85% 30.01 in 10.0 mi South 13.8 mph 24.2 mph N/A   Mostly Cloudy
11:35 AM 88.9 °F 113.8 °F 84.2 °F 86% 30.02 in 10.0 mi SSW 11.5 mph 18.4 mph N/A   Mostly Cloudy
11:55 AM 89.2 °F 112.8 °F 83.3 °F 83% 30.02 in 10.0 mi SSW 16.1 mph 23.0 mph N/A   Mostly Cloudy
12:15 PM 90.1 °F 114.7 °F 83.5 °F 81% 30.01 in 10.0 mi SSW 16.1 mph 23.0 mph N/A   Mostly Cloudy
12:35 PM 90.7 °F 115.0 °F 83.5 °F 79% 30.01 in 10.0 mi SSW 15.0 mph 23.0 mph N/A   Mostly Cloudy
12:55 PM 91.4 °F 118.7 °F 84.4 °F 80% 30.01 in 10.0 mi South 13.8 mph 23.0 mph N/A   Mostly Cloudy
1:15 PM 91.4 °F 117.8 °F 84.2 °F 79% 30.00 in 10.0 mi SSW 15.0 mph 20.7 mph N/A   Mostly Cloudy
1:35 PM 91.4 °F 118.7 °F 84.6 °F 80% 30.00 in 10.0 mi South 15.0 mph 20.7 mph N/A   Mostly Cloudy
1:55 PM 91.6 °F 117.6 °F 83.7 °F 78% 29.99 in 10.0 mi SSW 17.3 mph 21.9 mph N/A   Mostly Cloudy
2:15 PM 92.7 °F 121.7 °F 84.7 °F 78% 29.98 in 10.0 mi South 12.7 mph 20.7 mph N/A   Scattered Clouds
2:35 PM 92.7 °F 119.8 °F 84.2 °F 76% 29.97 in 10.0 mi SSW 11.5 mph 23.0 mph N/A   Scattered Clouds
2:55 PM 92.7 °F 119.8 °F 84.0 °F 76% 29.96 in 10.0 mi South 13.8 mph 19.6 mph N/A   Scattered Clouds
3:15 PM 94.1 °F 124.4 °F 84.9 °F 75% 29.95 in 10.0 mi South 10.4 mph 17.3 mph N/A   Scattered Clouds
3:35 PM 93.7 °F 122.0 °F 84.4 °F 74% 29.94 in 10.0 mi SSW 11.5 mph 19.6 mph N/A   Scattered Clouds
3:55 PM 94.6 °F 123.3 °F 84.6 °F 72% 29.93 in 10.0 mi SSW 8.1 mph 19.6 mph N/A   Scattered Clouds
4:15 PM 92.8 °F 120.5 °F 84.2 °F 76% 29.93 in 10.0 mi South 8.1 mph 17.3 mph N/A   Scattered Clouds
4:35 PM 93.7 °F 123.0 °F 84.7 °F 75% 29.93 in 10.0 mi SSW 9.2 mph 19.6 mph N/A   Scattered Clouds
4:55 PM 92.3 °F 119.4 °F 84.2 °F 77% 29.93 in 10.0 mi South 9.2 mph 16.1 mph N/A   Scattered Clouds
5:15 PM 92.3 °F 120.3 °F 84.7 °F 78% 29.93 in 10.0 mi South 10.4 mph - N/A   Mostly Cloudy
5:35 PM 90.9 °F 117.4 °F 84.2 °F 81% 29.93 in 10.0 mi South 12.7 mph 23.0 mph N/A   Scattered Clouds
5:55 PM 90.0 °F 116.5 °F 84.4 °F 84% 29.93 in 10.0 mi South 11.5 mph 18.4 mph N/A   Clear
6:15 PM 89.6 °F 115.8 °F 84.4 °F 85% 29.92 in 10.0 mi SSE 10.4 mph - N/A   Clear
6:35 PM 89.2 °F 116.0 °F 84.9 °F 87% 29.92 in 10.0 mi SSE 12.7 mph 16.1 mph N/A   Clear
6:55 PM 90.0 °F 114.8 °F 83.7 °F 82% 29.92 in 10.0 mi South 9.2 mph - N/A   Scattered Clouds
7:15 PM 89.6 °F 115.0 °F 84.2 °F 84% 29.93 in 10.0 mi South 11.5 mph 21.9 mph N/A   Clear
7:35 PM 88.9 °F 111.5 °F 83.3 °F 83% 29.93 in 10.0 mi South 12.7 mph 17.3 mph N/A   Clear
7:55 PM 88.2 °F 111.7 °F 83.8 °F 87% 29.93 in 10.0 mi South 10.4 mph 17.3 mph N/A   Clear
8:15 PM 87.1 °F 109.5 °F 83.8 °F 90% 29.93 in 10.0 mi SSE 9.2 mph - N/A   Clear
8:35 PM 86.0 °F 106.5 °F 83.3 °F 92% 29.94 in 10.0 mi SSE 8.1 mph - N/A   Clear
8:55 PM 85.1 °F 103.0 °F 82.6 °F 92% 29.94 in 10.0 mi SSE 8.1 mph - N/A   Clear
9:15 PM 84.4 °F 101.3 °F 82.4 °F 94% 29.94 in 10.0 mi SSE 8.1 mph - N/A   Clear
9:35 PM 84.0 °F 100.4 °F 82.4 °F 95% 29.94 in 10.0 mi SSE 6.9 mph - N/A   Clear
9:55 PM 83.3 °F 98.9 °F 82.6 °F 98% 29.95 in 10.0 mi SSE 10.4 mph - N/A   Clear
10:15 PM 82.8 °F 97.2 °F 82.4 °F 99% 29.95 in 10.0 mi SSE 10.4 mph 16.1 mph N/A   Clear
10:35 PM 82.4 °F 96.1 °F 82.4 °F 100% 29.95 in 10.0 mi SSE 10.4 mph - N/A   Clear
10:55 PM 81.9 °F 94.0 °F 81.9 °F 100% 29.96 in 10.0 mi South 9.2 mph - N/A   Clear
11:15 PM 81.9 °F 94.0 °F 81.9 °F 100% 29.96 in 10.0 mi South 9.2 mph - N/A   Clear
11:35 PM 82.0 °F 94.7 °F 82.0 °F 100% 29.96 in 10.0 mi South 10.4 mph - N/A   Clear
11:55 PM 81.9 °F 94.0 °F 81.9 °F 100% 29.97 in 10.0 mi SSE 10.4 mph - N/A   Clear